Temp
51 54 54 54 54 53 52 51 52 50 49 49 49 49 49 48 47 46 46 47 47 46 46 47 46 46 45 45 45 45 45 46 42 43 44 45 44 44 46 46 49 48 48
52 52 52 51 53 52 51 47 49 47 48 49 49 51 51 49 48 48 49 49 48 47 47 47 48 51 47 46 45 44 45 43 43 39 40 42 42 44 47 46 49 53 47
51 52 52 51 51 50 48 46 47 47 47 48 49 49 50 49 49 49 51 51 51 50 49 49 49 49 46 46 46 45 45 47 45 44 43 45 46 44 42 44 43 43 49
50 49 49 48 49 50 48 47 47 47 48 48 51 52 52 52 52 53 52 50 50 51 51 51 51 51 49 48 48 47 47 44 43 41 41 41 42 45 42 41 45 41 42
49 49 48 49 49 50 50 50 50 51 51 51 51 50 49 51 54 49 49 49 48 48 49 51 51 54 59 53 50 47 44 42 40 40 38 38 41 45 45 46 42 45 42
49 49 50 49 49 48 47 48 49 49 47 47 49 48 47 53 52 52 51 49 50 48 47 49 49 54 53 56 56 56 50 44 42 39 39 38 40 40 39 42 41 38 38
50 51 49 49 48 47 47 45 45 45 45 45 45 46 47 48 51 51 52 48 47 47 46 46 49 54 53 51 53 55 54 53 52 42 40 41 41 42 41 37 37 39 39
50 51 52 51 49 48 45 44 43 42 42 42 43 44 44 48 49 49 50 47 46 46 46 46 45 46 48 49 49 47 47 46 46 47 46 45 43 43 39 42 41 40 41
51 51 53 52 49 48 46 45 44 43 43 43 45 45 44 45 48 48 48 44 44 45 47 46 47 46 47 48 47 45 46 46 49 50 50 48 47 47 48 43 39 38 38
52 53 53 52 50 48 47 45 44 44 45 46 46 45 48 46 47 47 47 45 43 49 51 50 50 49 48 47 47 44 40 43 44 40 40 41 44 43 47 42 40 38 37
54 54 53 52 51 49 48 47 45 45 46 45 46 46 46 46 47 47 47 45 45 45 48 45 47 45 45 45 46 41 44 42 41 38 37 37 39 39 40 41 39 38 38
54 52 53 52 52 52 47 46 46 45 44 44 44 44 45 46 48 47 46 45 47 43 42 46 45 45 43 44 44 43 43 44 37 35 34 35 36 37 40 39 38 38 40
54 53 51 51 51 50 47 47 45 45 44 44 43 43 43 43 43 45 44 44 45 42 43 45 44 43 42 42 43 44 44 37 35 33 35 35 35 37 37 36 37 38 38
49 48 49 48 48 47 48 47 45 44 43 43 43 42 42 40 40 41 41 41 43 43 44 38 42 43 43 43 41 41 39 37 36 36 34 35 35 35 35 36 35 38 36
48 48 46 46 47 47 49 47 46 47 45 44 43 43 41 39 40 41 41 38 36 38 38 34 34 33 34 35 36 37 38 37 36 35 35 34 34 34 34 35 33 34 32
47 47 45 45 46 45 47 49 43 42 42 43 43 44 42 42 42 42 41 41 40 40 33 31 31 33 34 34 35 36 37 40 37 36 34 33 34 33 33 33 33 31 32
47 51 50 50 45 45 45 44 43 44 42 42 41 41 42 42 40 41 41 40 39 38 32 31 32 33 36 35 36 36 36 38 36 35 34 34 34 33 32 31 34 35 34
48 49 51 47 46 45 45 45 45 43 43 43 41 41 40 40 40 40 40 38 35 35 33 33 35 35 35 36 37 36 37 36 35 35 35 34 33 32 31 33 34 34 33
54 53 48 46 45 46 45 45 45 44 44 44 41 39 39 40 40 40 39 36 37 35 36 36 37 36 36 36 37 37 36 36 36 35 34 32 32 30 31 32 33 33 33
54 48 46 46 45 45 45 45 43 43 43 45 44 46 39 37 38 40 38 39 38 38 39 37 38 37 37 37 37 37 36 36 35 34 33 32 31 31 30 32 32 31 32
49 47 43 45 45 45 46 44 44 44 43 45 45 48 39 42 43 44 44 43 42 42 42 41 42 40 39 39 38 38 36 36 34 33 32 31 31 30 30 30 31 32 32
48 47 46 45 46 45 45 45 44 44 44 45 46 45 38 41 44 45 45 46 46 44 45 43 44 44 43 40 40 37 36 35 33 33 32 31 31 30 30 30 30 31 31
47 47 46 45 45 43 44 44 45 47 47 46 45 45 39 40 43 43 44 45 45 44 45 45 45 42 42 41 40 39 36 35 34 33 31 30 29 29 29 29 30 30 31
48 48 47 45 44 43 43 43 41 39 41 41 42 44 42 39 39 41 42 43 43 42 42 42 42 42 42 41 41 41 38 34 34 33 33 30 28 29 29 28 30 31 31
47 46 45 45 45 43 40 40 39 38 38 38 39 39 40 41 42 43 44 43 42 42 44 42 41 42 43 43 43 41 35 33 33 31 30 29 28 29 29 28 30 30 31
47 48 47 44 41 40 39 39 39 39 38 39 39 39 39 39 40 41 42 42 41 42 41 41 42 43 43 43 43 36 32 32 32 32 29 27 27 27 27 29 30 30 32
MSLP
1017.88 1018.20 1018.54 1019.38 1019.64 1020.22 1020.38 1020.88 1021.12 1021.57 1022.07 1022.26 1022.53 1023.01 1023.22 1023.69 1023.72 1023.69 1023.85 1024.27 1024.63 1024.86 1025.05 1025.17 1025.46 1025.52 1025.81 1025.99 1026.03 1026.16 1026.39 1026.65 1027.28 1027.17 1026.90 1026.48 1026.26 1026.18 1025.86 1025.50 1025.04 1024.86 1024.64
1020.09 1019.38 1020.07 1020.08 1020.50 1020.76 1020.92 1021.44 1021.25 1021.75 1021.91 1022.74 1022.92 1023.20 1023.23 1023.90 1023.80 1023.88 1023.84 1024.36 1024.70 1025.02 1025.40 1025.56 1025.63 1025.69 1025.91 1026.17 1026.13 1026.40 1026.57 1026.73 1026.89 1027.20 1026.92 1026.46 1025.98 1025.77 1025.51 1025.26 1024.97 1024.51 1024.39
1020.35 1020.18 1021.52 1021.40 1021.62 1021.46 1021.80 1021.98 1022.23 1022.30 1022.32 1022.76 1022.95 1023.31 1023.64 1023.88 1023.91 1023.94 1024.24 1024.51 1024.63 1024.71 1024.98 1025.34 1025.52 1025.68 1025.89 1026.07 1026.15 1026.36 1026.22 1026.15 1026.48 1026.71 1026.71 1026.24 1025.92 1025.46 1024.96 1024.83 1024.49 1024.27 1023.90
1021.78 1022.08 1021.98 1021.76 1022.10 1022.40 1022.34 1022.24 1022.40 1022.79 1022.97 1023.13 1023.06 1023.14 1023.69 1023.57 1023.82 1024.07 1024.25 1024.57 1024.75 1025.10 1024.99 1025.31 1025.24 1025.25 1025.38 1025.51 1025.75 1025.97 1026.01 1026.16 1026.32 1026.52 1026.33 1025.90 1025.50 1024.68 1024.65 1024.43 1023.84 1023.96 1023.67
1021.83 1022.03 1022.21 1022.36 1022.53 1022.48 1022.41 1022.30 1022.68 1022.98 1023.31 1023.26 1023.44 1023.45 1024.05 1023.77 1023.70 1024.39 1024.54 1024.41 1024.68 1024.78 1024.93 1024.93 1024.65 1024.79 1024.47 1024.90 1025.30 1025.21 1025.47 1025.82 1026.15 1026.32 1026.15 1025.80 1025.29 1024.62 1024.40 1024.24 1024.31 1023.62 1023.22
1021.83 1022.05 1022.14 1022.32 1022.70 1022.90 1022.89 1022.63 1022.61 1023.14 1023.43 1023.66 1023.61 1023.84 1024.18 1023.76 1024.03 1024.31 1024.50 1024.51 1024.47 1024.74 1024.87 1024.72 1024.59 1024.60 1024.50 1024.33 1024.24 1024.23 1024.76 1025.11 1025.32 1025.64 1025.75 1025.82 1025.44 1025.00 1024.51 1024.29 1023.92 1023.43 1022.52
1021.78 1021.84 1022.48 1022.76 1022.59 1022.70 1023.09 1023.02 1022.91 1023.27 1023.70 1023.96 1023.84 1024.03 1023.91 1023.81 1024.02 1024.08 1024.17 1024.66 1024.73 1024.38 1024.41 1024.44 1024.49 1024.19 1024.11 1024.30 1024.11 1023.84 1023.87 1024.01 1024.07 1024.53 1025.10 1025.15 1024.90 1024.44 1024.05 1023.83 1023.61 1023.24 1022.74
1020.88 1022.07 1022.22 1022.51 1022.52 1022.52 1022.35 1023.17 1023.05 1023.46 1023.73 1023.75 1023.97 1023.87 1024.05 1023.87 1023.95 1023.78 1023.80 1024.15 1024.60 1024.55 1024.25 1024.10 1024.23 1024.15 1024.09 1023.94 1023.89 1023.79 1023.79 1024.00 1024.16 1024.15 1024.18 1024.14 1023.93 1023.61 1023.61 1023.07 1023.07 1022.25 1021.77
1021.21 1021.43 1021.61 1022.02 1022.36 1022.10 1022.56 1022.89 1022.89 1023.26 1023.37 1023.65 1023.43 1023.43 1023.97 1023.92 1023.29 1023.47 1023.61 1023.70 1023.94 1023.92 1023.73 1023.73 1023.79 1023.67 1023.55 1023.40 1023.63 1023.72 1023.92 1023.97 1023.67 1023.49 1023.55 1023.40 1023.04 1022.71 1022.35 1022.37 1022.29 1021.96 1020.80
1021.07 1021.02 1021.04 1021.70 1021.54 1022.08 1022.38 1022.51 1022.73 1022.80 1022.95 1023.13 1023.16 1023.17 1023.24 1023.14 1022.89 1022.95 1022.90 1023.34 1023.44 1023.35 1023.25 1023.24 1023.24 1023.39 1023.21 1023.16 1023.58 1023.84 1023.92 1023.85 1023.54 1023.22 1023.18 1022.90 1022.40 1022.10 1021.62 1021.58 1021.41 1021.46 1021.01
1020.38 1020.52 1020.80 1021.07 1020.95 1021.30 1021.61 1021.89 1022.12 1022.43 1022.43 1022.76 1022.87 1022.50 1022.62 1022.92 1022.72 1022.59 1022.35 1022.54 1022.50 1022.68 1022.96 1023.01 1023.00 1023.19 1023.39 1023.34 1023.29 1023.64 1023.65 1023.27 1023.22 1023.22 1023.07 1022.72 1022.23 1021.81 1021.24 1020.86 1020.71 1020.73 1020.07
1019.67 1019.86 1020.06 1020.16 1020.64 1020.79 1021.30 1021.46 1021.70 1021.88 1022.21 1022.50 1022.59 1022.37 1022.47 1022.41 1022.36 1022.05 1021.94 1021.99 1022.13 1022.49 1022.84 1022.73 1022.69 1022.69 1023.04 1022.93 1023.12 1022.99 1022.92 1022.80 1022.77 1022.77 1022.73 1022.35 1021.94 1021.40 1020.70 1020.26 1019.83 1019.53 1018.87
1019.18 1019.43 1019.82 1019.72 1020.35 1020.46 1020.85 1021.42 1021.37 1021.51 1021.92 1022.19 1022.16 1022.33 1022.38 1022.34 1022.30 1021.97 1021.97 1022.03 1022.14 1022.52 1022.59 1022.38 1022.33 1022.50 1022.63 1022.71 1022.57 1022.31 1022.04 1022.02 1022.13 1022.30 1022.07 1021.75 1021.15 1020.50 1020.17 1019.79 1019.04 1018.45 1017.88
1019.16 1019.47 1019.72 1019.87 1020.12 1020.47 1020.59 1020.86 1020.98 1021.17 1021.43 1021.77 1021.96 1022.11 1022.28 1022.18 1022.19 1022.21 1022.23 1022.23 1022.44 1022.32 1022.31 1022.30 1022.42 1022.38 1022.27 1022.11 1021.74 1021.35 1021.25 1021.23 1021.42 1021.50 1021.32 1020.77 1020.43 1020.21 1019.85 1019.14 1018.66 1017.94 1017.32
1019.11 1019.49 1019.65 1019.80 1020.39 1020.49 1020.33 1020.31 1020.47 1020.42 1020.75 1021.08 1021.22 1021.40 1021.46 1021.77 1021.94 1021.86 1022.04 1022.25 1022.39 1022.44 1022.47 1022.51 1022.50 1022.49 1022.34 1021.99 1021.54 1021.17 1020.87 1020.77 1020.99 1020.64 1020.51 1020.39 1020.12 1019.76 1019.33 1018.63 1018.25 1017.73 1017.23
1019.01 1019.35 1019.57 1019.76 1019.84 1019.97 1020.10 1020.09 1020.12 1020.24 1020.13 1020.17 1020.18 1020.18 1020.63 1020.80 1021.04 1021.29 1021.56 1021.80 1021.99 1022.22 1022.54 1022.66 1022.37 1022.31 1022.16 1021.73 1021.45 1021.09 1020.67 1020.44 1020.15 1019.89 1020.00 1019.94 1019.75 1019.38 1019.03 1018.50 1018.03 1017.60 1016.77
1018.55 1018.72 1019.07 1019.42 1019.67 1019.85 1019.89 1020.00 1020.13 1019.84 1019.79 1019.76 1019.84 1019.96 1020.17 1020.23 1020.58 1020.80 1020.99 1021.20 1021.44 1021.74 1022.02 1022.03 1022.00 1021.74 1021.48 1021.32 1021.14 1020.81 1020.43 1019.82 1019.44 1019.55 1019.51 1019.34 1019.17 1018.99 1018.72 1018.29 1017.76 1017.06 1016.06
1018.07 1018.16 1018.55 1018.74 1018.88 1019.00 1019.08 1019.09 1019.22 1019.52 1019.57 1019.35 1019.29 1019.42 1019.60 1019.78 1019.95 1020.12 1020.31 1020.73 1021.16 1021.06 1021.08 1020.95 1020.90 1020.82 1020.65 1020.41 1020.09 1020.05 1019.75 1019.33 1019.18 1019.06 1019.04 1018.91 1018.74 1018.73 1018.40 1017.98 1017.37 1016.61 1015.73
1017.14 1017.51 1017.59 1017.81 1017.95 1018.08 1018.22 1018.37 1018.38 1018.58 1018.73 1018.67 1018.75 1019.07 1018.89 1019.03 1019.37 1019.73 1020.08 1020.38 1020.18 1019.97 1019.81 1019.72 1019.43 1019.50 1019.52 1019.37 1019.07 1019.05 1018.93 1018.69 1018.57 1018.60 1018.62 1018.53 1018.47 1018.44 1018.04 1017.59 1016.95 1016.24 1015.43
1016.05 1016.42 1016.74 1017.22 1017.35 1017.45 1017.57 1017.63 1017.75 1017.96 1018.03 1018.03 1017.96 1017.93 1018.10 1018.92 1019.32 1019.03 1018.89 1018.91 1019.05 1018.91 1018.66 1018.68 1018.46 1018.39 1018.31 1018.20 1018.25 1018.16 1018.03 1018.06 1018.08 1018.20 1018.14 1018.11 1018.07 1018.00 1017.74 1017.25 1016.59 1015.86 1015.02
1015.25 1015.70 1016.08 1016.58 1016.82 1016.84 1016.79 1016.85 1016.92 1017.04 1017.09 1017.06 1016.87 1016.45 1016.55 1016.99 1016.98 1017.10 1017.15 1017.28 1017.18 1017.08 1017.12 1017.10 1016.94 1016.94 1017.23 1017.21 1017.28 1017.34 1017.39 1017.41 1017.52 1017.48 1017.62 1017.69 1017.72 1017.66 1017.25 1016.86 1016.24 1015.53 1014.72
1014.66 1015.23 1015.62 1015.89 1016.03 1016.19 1016.25 1016.15 1016.25 1016.30 1016.19 1016.19 1015.97 1015.68 1015.57 1016.11 1015.89 1015.78 1015.51 1015.40 1015.52 1016.00 1016.40 1016.59 1016.48 1015.99 1015.77 1016.24 1016.37 1016.40 1016.60 1016.83 1016.91 1017.07 1017.12 1017.31 1017.37 1017.18 1016.82 1016.45 1015.85 1015.13 1014.40
1014.09 1014.66 1015.06 1015.20 1015.32 1015.45 1015.70 1015.80 1015.87 1015.86 1015.80 1015.62 1015.65 1015.69 1015.80 1015.65 1015.40 1015.19 1015.06 1015.04 1015.06 1014.92 1014.90 1015.07 1015.26 1015.66 1015.54 1015.85 1015.72 1015.64 1015.85 1015.92 1016.05 1016.49 1016.71 1016.91 1017.04 1016.92 1016.50 1016.12 1015.58 1014.77 1014.05
1013.24 1013.72 1014.15 1014.55 1015.02 1015.23 1015.34 1015.51 1015.57 1015.70 1015.79 1015.87 1015.84 1015.83 1015.82 1015.62 1015.57 1015.44 1014.83 1014.08 1013.93 1014.25 1014.55 1014.63 1014.89 1015.60 1015.38 1015.81 1015.77 1015.47 1015.27 1015.38 1015.58 1015.97 1016.19 1016.59 1016.75 1016.54 1016.15 1015.81 1015.27 1014.57 1013.86
1012.54 1012.97 1013.45 1013.90 1014.24 1014.57 1015.20 1015.45 1015.75 1015.98 1016.09 1016.11 1016.21 1016.37 1016.34 1015.97 1015.51 1014.92 1014.75 1014.40 1013.71 1013.45 1013.57 1013.79 1014.84 1015.12 1014.93 1014.92 1014.98 1014.83 1015.02 1015.27 1015.48 1015.83 1016.15 1016.31 1016.44 1016.18 1015.83 1015.47 1014.93 1014.29 1013.65
1012.00 1012.48 1012.91 1013.46 1014.14 1014.66 1015.14 1015.52 1015.72 1015.85 1016.07 1016.18 1016.19 1016.32 1016.47 1016.14 1015.56 1015.17 1014.58 1014.39 1014.27 1014.08 1014.09 1014.26 1014.40 1014.57 1014.58 1014.48 1014.22 1014.50 1014.98 1015.29 1015.61 1015.79 1015.94 1016.13 1016.16 1015.79 1015.47 1015.08 1014.54 1014.03 1013.39
Wind_Speed
11 10 11 10 10 9 10 9 9 7 7 6 7 6 6 6 5 6 7 6 7 6 5 6 7 6 4 4 4 4 4 3 2 3 1 3 3 5 5 5 5 5 5
6 10 8 8 9 8 7 6 6 7 7 6 6 6 6 6 5 6 6 6 7 7 6 6 5 4 5 3 4 4 3 3 3 3 3 3 3 4 5 5 4 5 4
8 10 6 7 8 8 7 6 6 7 7 7 7 6 6 5 6 5 6 5 5 6 6 4 3 3 2 2 3 3 2 1 1 1 3 3 4 4 3 4 4 5 3
8 6 6 6 6 5 6 6 7 6 7 6 6 6 5 5 4 4 6 6 6 4 2 2 2 2 3 3 3 4 4 3 2 2 3 4 3 4 2 5 9 2 6
9 7 6 4 3 4 5 6 6 5 5 5 4 5 3 3 2 1 4 5 3 1 3 3 2 5 7 7 4 5 3 3 3 3 3 3 5 7 9 6 7 9 5
6 6 6 6 5 3 3 4 5 5 4 3 2 2 3 2 1 2 4 3 5 4 4 5 4 7 7 9 9 15 9 6 5 3 2 3 5 5 2 6 7 6 9
4 4 4 5 4 5 4 4 5 4 3 3 1 2 2 2 6 7 6 3 5 5 5 5 5 4 6 5 9 11 10 14 12 4 5 6 6 5 4 5 5 8 10
7 6 7 7 5 5 5 4 3 2 4 3 4 4 4 5 9 10 10 5 5 7 7 7 6 7 7 7 6 6 6 4 4 4 6 8 7 8 6 7 9 10 8
4 6 7 6 6 5 5 7 5 4 4 5 5 6 6 8 8 10 8 5 6 8 8 6 7 7 9 11 6 3 2 5 6 12 13 13 14 14 15 6 7 7 11
7 7 7 7 7 7 8 7 5 5 6 5 6 6 8 7 9 11 8 4 5 5 6 5 6 6 9 6 3 1 4 7 6 7 7 8 10 10 17 7 6 8 9
9 9 7 9 9 8 7 5 6 6 5 5 6 6 6 7 8 12 13 5 5 4 4 1 2 3 7 6 6 4 7 6 8 6 6 6 7 7 6 6 6 6 9
6 7 7 7 7 6 7 4 4 5 5 5 4 4 4 5 7 9 9 7 5 4 4 3 3 5 10 11 8 10 14 13 5 5 4 6 6 6 7 6 7 7 8
6 6 4 6 5 4 5 4 2 3 3 4 3 4 4 2 3 0 3 5 5 2 3 5 6 9 10 8 13 12 10 4 4 3 5 5 5 5 6 6 6 8 9
5 3 4 4 4 3 3 4 4 4 4 4 4 4 4 2 3 2 2 1 2 3 2 3 5 6 7 7 6 6 4 4 4 5 5 4 3 3 4 4 5 8 7
5 5 2 2 4 5 5 4 4 5 5 5 5 5 4 4 5 7 6 4 3 3 1 2 3 2 4 5 4 5 4 4 4 4 4 4 4 3 5 4 4 6 6
4 4 5 4 4 4 4 4 5 8 8 11 9 7 4 7 8 10 10 9 7 5 1 3 4 4 5 5 5 5 4 7 5 4 3 3 4 5 5 5 4 4 9
7 5 4 5 5 5 4 5 5 4 5 6 7 9 10 8 11 11 10 9 9 7 4 4 5 5 6 5 6 5 5 6 3 3 4 4 4 4 3 4 6 9 10
8 12 7 6 5 5 5 5 4 4 5 5 10 10 12 12 13 13 12 5 3 5 5 5 6 6 5 6 6 5 5 4 3 3 4 3 4 2 3 5 8 10 11
10 9 7 6 5 6 5 5 5 5 6 6 2 3 11 14 13 11 8 6 7 6 7 7 7 6 6 5 5 5 5 4 4 3 3 3 3 2 5 6 8 11 13
7 10 7 5 5 5 5 5 4 5 5 7 6 8 3 5 6 10 9 9 8 9 7 7 7 6 6 5 5 5 4 4 4 3 4 3 3 3 5 7 8 10 10
5 5 7 4 4 5 5 5 5 5 5 6 8 9 11 10 12 13 12 11 12 11 10 9 8 6 5 5 5 4 5 4 4 4 4 3 2 4 4 5 7 8 10
5 5 5 5 5 5 5 5 5 5 6 7 7 6 11 10 8 10 11 12 10 8 7 7 8 7 7 5 5 5 4 4 4 4 4 3 3 4 5 6 7 8 9
6 6 5 4 5 5 5 5 5 7 8 6 5 5 1 6 8 6 6 5 5 5 7 9 7 5 3 4 4 4 5 5 5 5 4 2 3 4 5 5 8 9 9
8 7 6 5 4 5 5 4 2 5 5 4 4 5 5 3 4 6 6 5 4 4 4 1 1 4 3 3 5 4 4 4 4 5 5 3 3 5 5 5 7 10 9
7 6 6 6 6 3 4 5 5 4 4 3 4 5 6 6 6 6 5 5 4 4 6 7 4 3 3 6 8 6 5 6 5 4 2 1 4 6 5 5 8 8 10
7 7 5 2 5 5 5 4 4 5 4 4 4 3 4 5 6 7 4 2 2 4 4 3 2 2 6 8 8 6 6 5 5 4 2 1 4 5 4 7 9 7 10
Wind_Direction
68 82 90 92 98 100 113 125 132 133 131 118 118 112 104 100 106 99 104 101 93 86 72 82 80 86 74 70 65 67 73 91 109 304 288 307 319 330 317 321 319 317 313
103 96 84 93 96 99 95 92 107 113 113 119 114 111 109 107 106 124 116 114 107 90 85 77 73 89 83 84 87 75 97 141 134 220 258 269 241 273 274 287 280 297 300
85 85 97 77 82 88 83 86 87 95 99 106 111 104 92 101 97 105 113 111 118 130 127 122 143 117 139 187 173 160 152 109 150 210 269 246 254 244 274 268 262 284 269
96 78 78 83 95 96 109 104 100 106 105 108 113 116 125 116 123 118 89 85 75 66 87 210 239 234 231 228 241 219 205 219 245 252 266 257 244 311 276 318 322 259 292
117 116 121 94 93 110 111 111 104 98 90 83 88 87 65 61 54 61 135 115 89 311 320 317 293 266 295 214 217 248 221 229 240 247 268 297 305 313 318 321 299 306 289
131 146 142 147 156 135 120 120 113 122 112 97 98 192 226 230 230 133 185 170 213 222 252 272 269 291 287 282 270 252 209 204 233 213 247 259 271 277 279 295 299 308 313
141 139 157 180 163 164 169 165 162 163 180 210 233 222 225 287 275 260 260 251 239 230 240 262 292 277 290 285 289 284 255 232 223 189 238 254 262 253 272 292 273 276 279
167 195 194 195 189 186 161 202 191 198 215 211 237 243 249 257 241 243 253 238 244 251 242 242 238 265 268 273 281 274 270 259 248 246 231 254 254 270 233 265 272 274 274
216 206 203 199 194 189 198 211 209 208 215 222 223 229 233 258 254 255 254 229 237 245 250 242 232 257 272 273 278 249 257 277 257 258 263 262 265 268 270 285 279 295 297
233 225 206 195 193 193 210 208 205 198 215 206 235 231 235 253 257 247 237 216 235 253 261 255 276 271 279 176 168 242 284 267 287 304 304 297 284 278 287 276 273 278 278
229 225 212 203 204 204 208 192 197 214 218 229 238 248 250 241 263 263 261 210 208 212 226 261 15 336 249 226 209 226 244 261 278 265 266 273 278 281 279 264 249 241 278
211 206 200 188 199 200 204 209 198 189 201 231 235 271 260 264 260 262 248 204 163 169 206 227 225 228 228 233 271 264 263 268 254 256 270 275 268 270 269 260 263 253 245
157 153 152 172 185 163 157 191 186 178 197 248 238 261 273 280 314 310 132 161 196 212 249 254 234 226 245 254 257 256 265 245 245 247 262 261 241 246 281 274 269 268 267
144 171 155 145 152 178 188 199 199 214 217 227 237 234 224 224 248 238 244 270 341 283 284 294 277 289 282 277 299 290 278 251 227 238 241 247 270 279 274 267 284 293 291
175 192 181 165 216 237 233 223 221 225 190 208 221 197 186 227 237 203 191 199 213 243 282 319 313 310 289 288 279 260 282 280 252 236 240 272 277 271 275 286 281 295 292
189 211 216 216 241 244 246 272 234 240 220 216 198 169 206 210 204 185 192 206 199 201 108 248 267 258 265 275 281 284 282 270 250 245 265 253 264 279 292 297 281 281 295
209 218 215 213 219 226 234 221 230 267 254 250 216 207 192 192 192 194 203 201 204 163 207 232 252 259 266 264 260 253 253 251 258 253 249 262 284 288 298 294 298 306 302
212 225 212 216 216 215 225 224 201 200 215 232 228 221 219 206 199 206 209 171 231 214 210 224 234 237 245 246 251 250 258 276 255 228 256 279 278 263 294 302 308 306 308
213 224 213 217 222 216 215 225 208 206 214 237 201 221 230 218 210 216 195 217 227 224 217 226 226 223 235 238 241 243 238 235 219 238 256 238 262 272 289 292 301 306 307
198 211 198 211 224 212 214 226 231 224 223 229 225 236 167 126 202 219 216 220 226 237 237 227 230 221 231 220 221 231 223 231 244 243 226 227 261 274 283 297 303 310 308
179 183 191 203 207 216 223 221 224 231 232 230 228 228 195 193 212 217 219 220 226 229 233 232 226 208 212 206 210 219 224 244 238 213 212 221 266 286 283 278 294 303 304
173 186 182 198 212 222 237 240 235 231 233 234 247 239 211 216 223 224 225 229 229 232 243 240 237 211 194 202 210 209 229 234 212 206 203 221 271 285 284 291 299 307 307
178 184 202 212 215 220 241 249 254 259 266 273 301 323 204 227 243 248 247 243 228 221 228 223 207 218 193 248 230 208 206 212 197 185 195 221 267 281 285 293 301 308 310
187 188 198 204 210 220 227 251 341 48 53 52 34 17 3 320 277 276 260 218 189 209 214 212 170 220 178 251 273 267 220 169 155 184 184 185 271 286 287 290 297 305 305
188 186 190 204 218 232 89 101 95 80 63 50 32 14 355 336 319 311 296 299 296 265 237 164 182 240 295 286 268 220 169 159 160 158 156 213 280 289 286 289 296 303 305
196 199 201 142 103 118 126 130 114 99 88 75 70 43 356 331 321 291 318 317 327 32 55 75 79 257 281 271 238 154 147 136 147 187 170 310 293 287 285 290 295 298 303